Location: Bílinka
(49.3579°N, 14.3767°E)
Time: 01:42:33
(UTC+00:00)

ATLAS 2AS CENTAUR R/B - Pass Details

Date: 28 January 2023
Orbit: 986 x 1226 km, 63.7° (Epoch: 30 March)

Event Time Altitude Azimuth Distance (km) Brightness Sun altitude
Rises 17:19:26 0° 315° (NW) 4,020 6.2 -14.3°
Reaches altitude 10° 17:22:19 10° 321° (NW) 3,021 5.4 -14.8°
Maximum altitude 17:29:17 51° 37° (NE) 1,334 2.9 -15.9°
Enters shadow 17:33:42 21° 105° (ESE) 2,152 3.8 -16.6°
